Regional Weather Roundup
Issued by NWS

Home | Current Version | Previous Version | Text Only | Print | Product List | Glossary On
Versions: 1 2 3 4 5 6 7 8 9 10 11 12 13 14 15 16 17 18 19 20 21 22 23 24 25 26 27 28 29 30 31 32 33 34 35 36 37 38 39 40 41 42 43 44 45 46 47 48 49 50
000
ASUS43 KDTX 141610
RWRMI
MICHIGAN HOURLY REGIONAL WEATHER ROUNDUP
NATIONAL WEATHER SERVICE DETROIT/PONTIAC MI
1100 AM EST SUN FEB 14 2016

NOTE: "FAIR" INDICATES FEW OR NO CLOUDS BELOW 12,000 FEET WITH NO
SIGNIFICANT WEATHER AND/OR OBSTRUCTION TO VISIBILITY.

MIZ047>049-052>055-059>063-066>070-074>076-081>083-141700-
SOUTHEAST LOWER MICHIGAN

CITY           SKY/WX    TMP DP  RH WIND       PRES   REMARKS
ADRIAN         CLOUDY    14   4  64 S12       30.42F WCI   0
ALMA           MOSUNNY   16   3  58 SE10      30.41F WCI   3
ANN ARBOR      PTSUNNY   14   4  64 S12G18    30.42F WCI   0
BAD AXE        SUNNY      9   5  83 S7        30.42F WCI  -2
CARO           SUNNY     10   1  67 CALM      30.42F
DETROIT CITY   SUNNY     14  -1  51 SE7       30.46F WCI   4
DETROIT        PTSUNNY   14   4  64 SE7       30.46F WCI   4
FLINT          SUNNY     13   1  59 S7        30.43F WCI   3
GROSSE ILE     CLOUDY    16   3  57 CALM      30.45F
HILLSDALE      CLOUDY    13   1  59 SE13      30.36F WCI  -2
HOWELL         SUNNY     13   1  59 S12       30.40F WCI  -1

CITY           SKY/WX    TMP DP  RH WIND       PRES   REMARKS
JACKSON        CLOUDY    13   0  56 S13       30.38F WCI  -2
LAMBERTVILLE   MOSUNNY   15   4  61 SE8       30.44F WCI   4
LANSING        SUNNY     13   0  56 SE10      30.40F WCI   0
LAPEER         FAIR      11   2  66 CALM      30.43F
MASON          SUNNY     13   2  62 S8        30.39F WCI   2
MONROE         PTSUNNY   16   4  61 S9        30.45F WCI   4
MT. CLEMENS    MOSUNNY   13   5  70 VRB6      30.45S WCI   4
PONTIAC        MOSUNNY   12  -1  56 S8        30.41F WCI   0
PORT HOPE        N/A     14   2  58 VRB6      30.42S WCI   5
PORT HURON     SUNNY     12   3  67 S3        30.46F
TRI CITIES     SUNNY     14   2  58 S8        30.43F WCI   3
MIDLAND        FAIR      14   1  56 S9        30.42F WCI   2
TROY           SUNNY     16   1  52 CALM      30.46F
SAGINAW HB     SUNNY     12   5  73 SE5       30.43F WCI   4
$$
MIZ043>046-050>051-056>058-064>065-071>073-077>080-141700-
SOUTHWEST LOWER MICHIGAN

CITY           SKY/WX    TMP DP  RH WIND       PRES   REMARKS
BATTLE CREEK   CLOUDY    12   0  58 SE13      30.36F WCI  -3
BENTON HARBOR  CLOUDY    14   3  61 SE15      30.31F WCI  -1
BIG RAPIDS     SUNNY     13   2  63 SE12      30.34F WCI  -1
COLDWATER      CLOUDY    13   2  61 SE13      30.36F WCI  -1
FREMONT        FAIR      13  -3  48 SE9       30.35F WCI   1
HOLLAND        CLOUDY    11   0  61 SE15      30.35F WCI  -5
GRAND RAPIDS   PTSUNNY   15   1  53 SE17      30.37F WCI  -1
IONIA          FAIR      15   1  54 SE14      30.38F WCI   0
KALAMAZOO      CLOUDY    13   1  59 SE8       30.36F WCI   2
LUDINGTON      CLOUDY    15   3  58 SE15G22   30.32F WCI  -1
MARSHALL       CLOUDY    13   1  57 SE9G17    30.37F WCI   1
MOUNT PLEASANT MOSUNNY   16   2  54 SE8       30.39F WCI   5
MUSKEGON       MOSUNNY   14  -1  51 SE16      30.35F WCI  -2
SOUTH HAVEN    MOSUNNY   14   2  59 SE15G22   30.32F WCI  -1
$$
MIZ016>042-141700-
NORTHERN LOWER MICHIGAN

CITY           SKY/WX    TMP DP  RH WIND       PRES   REMARKS
ALPENA         SUNNY     12   1  61 S10       30.40F WCI  -1
BEAVER ISLAND  LGT SNOW  17  14  89 E6        30.31F WCI   8
BELLAIRE       CLOUDY    16   4  60 S10       30.36F WCI   3
CADILLAC       SUNNY     12  -1  56 SE10      30.30F WCI  -2
CHARLEVOIX     CLOUDY    16   7  67 S7        30.36F WCI   6
FRANKFORT      CLOUDY    17   4  57 SE12G17   30.32F WCI   4
GAYLORD        PTSUNNY   12   2  64 S9        30.29F WCI   0
GRAYLING       CLOUDY    13  -1  54 S7        30.33F WCI   2
HARBOR SPRINGS CLOUDY    10   4  75 E5        30.33F WCI   2
HOUGHTON LAKE  SUNNY     11  -1  58 S9        30.34F WCI  -2
MANISTEE       CLOUDY    16   0  48 S12G22    30.33F WCI   3
OSCODA         SUNNY     13   1  56 SW5       30.41S WCI   6
PELLSTON       CLOUDY     8   3  80 SE5       30.35F WCI   0
ROGERS CITY    SUNNY     11   2  67 S6        30.39F WCI   2
TRAVERSE CITY  CLOUDY    16   3  56 SE8G16    30.34F WCI   5
$$
MIZ007>008-015-141700-
EASTERN UPPER MICHIGAN

CITY           SKY/WX    TMP DP  RH WIND       PRES   REMARKS
KINROSS        MOSUNNY   10   3  72 CALM      30.35F
MACKINAC ISLAN CLOUDY    12   6  75 SE6       30.34F WCI   3
NEWBERRY       MOSUNNY    8   5  87 SE6       30.30F WCI  -2
S. S. MARIE    SUNNY      2  -7  66 E7        30.37S WCI -11
MUNISING         N/A     12  -1  56 S12       30.28F WCI  -2
$$
MIZ004>006-011>014-085-141700-
CENTRAL UPPER MICHIGAN

CITY           SKY/WX    TMP DP  RH WIND       PRES   REMARKS
MANISTIQUE     PTSUNNY   12   6  77 NE3       30.30F
ESCANABA       SUNNY      7 -20  28 E6        30.29F WCI  -3
MENOMINEE      CLOUDY     9  -2  61 CALM      30.27F
SAWYER-GWINN   SUNNY      3  -2  78 S10       30.20  WCI -12
$$
MIZ001>003-009>011-084-141700-
WESTERN UPPER MICHIGAN

CITY           SKY/WX    TMP DP  RH WIND       PRES   REMARKS
IRON MOUNTAIN  CLOUDY     5  -5  63 CALM      30.20F
HOUGHTON       SUNNY      5  -4  66 S9        30.16F WCI  -9
COPPER HARBOR    N/A     13   5  70 SW10      30.20F WCI   0
IRONWOOD       CLOUDY     7 -11  43 S12       30.08S WCI  -9
$$

ABBREVIATIONS USED IN REMARKS
   TC - TEMPERATURE IN CELSIUS
  WCI - WIND CHILL INDEX
   HX - HEAT INDEX
  VSB - VISIBILITY




USA.gov is the U.S. government's official web portal to all federal, state and local government web resources and services.